カタログに戻る

TIANHUI 2-02A

運用中科学SSO
NORAD 49071·PAYLOAD·🇨🇳 China

打ち上げ Aug 18, 2021 から Taiyuan Satellite Launch Center

Loading…

次のパス (今後24時間)

TLE

最新Source: Space-Track

元期: Sep 14, 2026, 17:17 UTC

1 49071U 21074A   26257.72047339  .00001355  00000-0  72458-4 0  9996
2 49071  97.4859 259.7885 0001892 108.8871 251.2568 15.16754825280847

AllMySatでTIANHUI 2-02Aをリアルタイム追跡

Download on the App Store